DateTimeUTC,F1_A11,F1_S11,BsB_S11,BsG_S11,BsR_S11,BbsB_S11,BbsG_S11,BbsR_S11,BaB_A11,BaG_A11,BaR_A11,Tu_S11,T_S11,Uu_S11,U_S11,P_S11,T1_A11
2021-09-03T22:00:00Z,00000200,20000000,,,,,,,0000.07,0000.29,0000.08,19.4,25.9,06.4,04.3,0667.7,31.1
2021-09-03T22:01:00Z,00000200,20000000,,,,,,,-000.19,-000.03,0000.34,19.4,26.0,06.4,04.3,0667.7,31.1
2021-09-03T22:02:00Z,00000200,20000000,,,,,,,-000.02,0000.38,-000.46,19.4,26.0,06.4,04.3,0667.7,31.1
2021-09-03T22:03:00Z,00000200,60000000,,,,,,,-000.01,-000.33,0000.25,19.4,26.0,06.4,04.3,0667.7,31.1
2021-09-03T22:04:00Z,00000200,40000000,0000.90,0000.86,0000.29,0000.12,0000.08,-000.02,0000.06,0000.40,0000.02,19.6,25.9,06.2,04.3,0668.6,31.1
2021-09-03T22:05:00Z,00000200,00000000,0000.64,0000.46,0000.55,0000.57,0000.41,0000.32,0000.25,-000.03,0000.23,19.6,25.8,06.2,04.3,0668.7,31.1
2021-09-03T22:06:00Z,00000200,00000000,0001.18,0000.63,0000.33,0000.62,0000.62,0000.14,0000.20,0000.10,-000.12,19.6,25.8,06.1,04.2,0668.7,31.1
2021-09-03T22:07:00Z,00000200,00000000,0000.63,0000.42,0000.11,-000.16,0000.03,-000.09,0000.07,-000.12,0000.08,19.6,25.8,06.2,04.3,0668.7,31.1
2021-09-03T22:08:00Z,00000200,00000000,0000.98,0000.61,0000.34,0000.41,0000.33,0000.00,0000.12,0000.40,0000.26,19.6,25.8,06.1,04.2,0668.7,31.1
2021-09-03T22:09:00Z,00000200,00000000,0000.65,0000.54,0000.26,0000.23,0000.35,-000.12,0000.05,0000.08,0000.09,19.6,25.8,06.1,04.2,0668.7,31.1
2021-09-03T22:10:00Z,00000200,00000000,0000.78,0000.69,0000.45,0000.44,0000.43,-000.05,0000.32,0000.06,0000.14,19.6,25.8,06.0,04.1,0668.7,31.1
2021-09-03T22:11:00Z,00000200,00000000,0000.71,0000.29,0000.30,0000.04,0000.28,0000.17,-000.06,-000.06,-000.18,19.6,25.8,06.0,04.1,0668.8,31.1
2021-09-03T22:12:00Z,00000200,00000000,0000.67,0000.62,0000.37,-000.26,0000.14,-000.15,0000.27,0000.19,0000.03,19.6,25.7,06.0,04.1,0668.7,31.1
2021-09-03T22:13:00Z,00000200,00000000,-000.09,0000.77,0000.38,0001.11,0000.24,-000.06,0000.14,0000.23,0000.13,19.5,25.7,05.9,04.1,0668.7,31.1
2021-09-03T22:14:00Z,00000200,00000000,0000.96,0000.57,0000.44,0000.49,0000.37,0000.29,-000.25,0000.10,0000.12,19.5,25.7,05.8,04.0,0668.8,31.1
2021-09-03T22:15:00Z,00000200,00000000,0000.68,0000.39,0000.62,0000.28,0000.33,0000.29,0000.43,-000.06,0000.56,19.5,25.7,05.8,04.0,0668.7,31.1
2021-09-03T22:16:00Z,00000200,00000000,0000.15,0000.70,0000.54,0000.73,0000.34,0000.02,0000.24,0000.55,-000.09,19.5,25.7,05.8,03.9,0668.7,31.1
2021-09-03T22:17:00Z,00000200,00000000,0000.78,0000.82,0000.39,0000.53,0000.43,0000.20,0000.53,0000.01,0000.18,19.5,25.7,05.8,04.0,0668.7,31.1
2021-09-03T22:18:00Z,00000200,00000000,0000.87,0000.88,0000.22,0000.26,0000.36,0000.15,0000.10,0000.26,-000.08,19.5,25.7,05.7,03.9,0668.7,31.1
2021-09-03T22:19:00Z,00000200,00000000,0000.85,0001.00,0000.34,0000.64,0000.30,0000.34,0000.20,0000.22,0000.34,19.5,25.7,05.7,03.9,0668.7,31.1
2021-09-03T22:20:00Z,00000200,00000000,-000.12,0000.85,0000.22,0000.15,0000.38,0000.37,-000.21,0000.05,-000.02,19.5,25.7,05.8,04.0,0668.7,31.1
2021-09-03T22:21:00Z,00000200,00000000,0000.01,0000.60,0000.52,-000.08,-000.15,0000.06,0000.09,0000.19,0000.03,19.5,25.7,05.5,03.8,0668.7,31.1
2021-09-03T22:22:00Z,00000200,00000000,0001.28,0000.54,0000.49,0000.52,0000.11,0000.01,0000.57,0000.11,0000.00,19.5,25.6,05.6,03.8,0668.7,31.1
2021-09-03T22:23:00Z,00000200,00000000,0001.29,0000.40,0000.32,0000.40,0000.26,-000.16,-000.17,0000.07,0000.29,19.4,25.6,05.5,03.8,0668.8,31.1
2021-09-03T22:24:00Z,00000200,00000000,0001.13,0000.98,0000.56,0000.16,0000.05,-000.18,0000.55,0000.51,0000.45,19.4,25.6,05.6,03.8,0668.8,31.1
2021-09-03T22:25:00Z,00000200,00000000,0000.02,0001.06,0000.37,-000.42,0000.30,-000.07,-000.03,0000.07,-000.05,19.4,25.6,05.5,03.8,0668.8,31.1
2021-09-03T22:26:00Z,00000200,00000000,0001.34,0000.74,0000.58,0000.71,0000.33,0000.26,0000.32,0000.24,0000.26,19.4,25.6,05.4,03.7,0668.7,31.1
2021-09-03T22:27:00Z,00000200,00000000,0001.03,0000.85,0000.27,0000.38,0000.08,-000.02,0000.49,0000.25,-000.06,19.4,25.6,05.4,03.7,0668.8,31.1
2021-09-03T22:28:00Z,00000200,00000000,0001.10,0001.25,0000.29,0000.37,0000.57,0000.13,-000.05,0000.08,0000.33,19.4,25.6,05.4,03.7,0668.8,31.1
2021-09-03T22:29:00Z,00000200,00000000,0001.49,0000.81,0000.79,0000.37,0000.70,0000.16,0000.52,0000.17,-000.04,19.4,25.6,05.3,03.6,0668.8,31.1
2021-09-03T22:30:00Z,00000200,00000000,0000.44,0001.24,0000.69,-000.05,0000.25,0000.18,-000.08,0000.38,0000.14,19.4,25.6,05.3,03.7,0668.8,31.1
2021-09-03T22:31:00Z,00000200,00000000,0001.15,0000.90,0000.60,0000.54,0000.56,0000.11,0000.35,0000.37,0000.48,19.4,25.6,05.4,03.7,0668.8,31.1
2021-09-03T22:32:00Z,00000200,00000000,0001.90,0000.91,0000.42,0000.77,0000.39,0000.31,0000.19,-000.05,0000.12,19.3,25.6,05.3,03.6,0668.8,31.1
2021-09-03T22:33:00Z,00000200,00000000,0001.68,0001.00,0000.66,-000.16,0000.42,0000.13,0000.25,0000.70,0000.23,19.3,25.6,05.4,03.7,0668.8,31.1
2021-09-03T22:34:00Z,00000200,00000000,0001.51,0000.86,0000.85,0000.16,0000.33,0000.38,0000.30,0000.03,0000.03,19.3,25.5,05.3,03.6,0668.8,31.1
2021-09-03T22:35:00Z,00000200,00000000,0002.31,0001.04,0000.69,0000.33,0000.17,-000.10,0000.52,0000.21,0000.23,19.3,25.5,05.1,03.5,0668.8,31.1
2021-09-03T22:36:00Z,00000200,00000000,0000.82,0001.21,0000.52,0000.52,0000.39,0000.27,0000.16,0000.42,0000.24,19.3,25.5,05.3,03.6,0668.8,31.1
2021-09-03T22:37:00Z,00000200,00000000,0001.64,0001.11,0000.49,0000.11,0000.54,0000.02,0000.13,0000.09,0000.39,19.3,25.5,05.2,03.5,0668.8,31.1
2021-09-03T22:38:00Z,00000200,00000000,0001.54,0001.34,0000.78,0000.10,0000.58,0000.20,0000.36,0000.18,-000.17,19.3,25.5,05.2,03.6,0668.9,31.1
2021-09-03T22:39:00Z,00000200,00000000,0001.31,0001.01,0000.61,0000.62,0000.72,0000.18,0000.30,0000.15,0000.37,19.3,25.5,05.1,03.5,0668.9,31.1
2021-09-03T22:40:00Z,00000200,00000000,0001.52,0001.36,0000.81,0000.42,0000.25,0000.32,0000.48,0000.68,0000.23,19.3,25.5,05.2,03.6,0668.9,31.1
2021-09-03T22:41:00Z,00000200,00000000,0001.37,0001.01,0000.34,0000.81,0000.19,-000.21,0000.11,-000.05,0000.20,19.3,25.5,05.1,03.5,0668.9,31.1
2021-09-03T22:42:00Z,00000200,00000000,0000.95,0001.03,0000.55,0000.49,0000.20,0000.36,0000.37,0000.17,0000.29,19.3,25.5,05.1,03.5,0668.9,31.1
2021-09-03T22:43:00Z,00000200,00000000,0001.26,0001.02,0000.44,0000.02,0000.10,0000.07,0000.67,0000.33,0000.25,19.3,25.5,05.0,03.4,0668.9,31.1
2021-09-03T22:44:00Z,00000200,00000000,0001.56,0001.23,0000.72,0000.01,0000.33,0000.04,0000.33,0000.59,0000.65,19.4,25.5,05.0,03.4,0668.9,31.1
2021-09-03T22:45:00Z,00000200,00000000,0001.63,0001.26,0000.68,0000.45,0000.34,0000.27,0000.16,0000.27,0000.09,19.5,25.6,05.0,03.5,0668.9,31.1
2021-09-03T22:46:00Z,00000200,00000000,0001.60,0001.12,0000.51,0000.37,0000.14,0000.37,0000.15,0000.43,-000.03,19.5,25.6,05.0,03.4,0668.9,31.1
2021-09-03T22:47:00Z,00000200,00000000,0001.38,0001.00,0000.33,0000.89,0000.27,0000.45,0000.42,0000.03,0000.37,19.6,25.6,05.0,03.4,0668.9,31.1
2021-09-03T22:48:00Z,00000200,00000000,0001.98,0001.01,0000.46,0000.40,0000.38,0000.06,0000.24,0000.49,0000.54,19.5,25.6,04.9,03.4,0668.9,31.1
2021-09-03T22:49:00Z,00000200,00000000,0001.34,0000.98,0000.70,0001.24,0000.24,-000.02,0000.25,0000.29,-000.01,19.5,25.7,04.9,03.4,0668.8,31.1
2021-09-03T22:50:00Z,00000200,00000000,0000.88,0000.96,0000.93,0000.86,0000.64,0000.12,0000.56,0000.11,0000.11,19.5,25.6,04.8,03.3,0668.8,31.1
2021-09-03T22:51:00Z,00000200,00000000,0001.17,0001.04,0000.81,0000.05,0000.50,0000.37,0000.27,0000.55,0000.22,19.5,25.6,04.9,03.4,0668.9,31.1
2021-09-03T22:52:00Z,00000200,00000000,0001.18,0000.93,0000.82,0000.33,0000.12,0000.04,0000.22,-000.07,0000.22,19.5,25.6,04.9,03.4,0668.9,31.1
2021-09-03T22:53:00Z,00000200,00000000,0000.97,0001.10,0000.70,0000.13,0000.35,0000.26,0000.21,0000.40,0000.05,19.5,25.6,04.9,03.4,0668.9,31.1
2021-09-03T22:54:00Z,00000200,00000000,0001.81,0001.04,0000.50,0000.43,0000.31,-000.01,0000.35,0000.22,0000.30,19.4,25.6,04.9,03.4,0668.9,31.1
2021-09-03T22:55:00Z,00000200,00000000,0001.42,0001.27,0000.53,0000.13,0000.53,-000.01,0000.25,0000.13,0000.10,19.4,25.6,04.9,03.4,0668.9,31.1
2021-09-03T22:56:00Z,00000200,00000000,0002.13,0001.27,0000.73,0000.99,0000.30,0000.15,0000.49,0000.57,0000.20,19.4,25.6,04.9,03.4,0668.9,31.1
2021-09-03T22:57:00Z,00000200,40000000,,,,,,,0000.36,0000.51,0000.69,19.4,25.6,05.1,03.5,0668.8,31.1
2021-09-03T22:58:00Z,00000200,60000000,,,,,,,-000.45,-000.19,-000.64,19.1,25.7,04.9,03.3,0667.9,31.1
2021-09-03T22:59:00Z,00000200,20000000,,,,,,,0000.48,-000.30,0000.20,19.2,25.8,04.9,03.3,0667.9,31.1
